Regional Weather Roundup
Issued by NWS Northern Indiana

Home | Current Version | Previous Version | Text Only | Print | Product List | Glossary Off
Versions: 1 2 3 4 5 6 7 8 9 10 11 12 13 14 15 16 17 18 19 20 21 22 23 24 25 26 27 28 29 30 31 32 33 34 35 36 37 38 39 40 41 42 43 44 45 46 47 48 49 50

000
ASUS43 KIWX 040400
RWRIWX

KIWX WEATHER ROUNDUP
NATIONAL WEATHER SERVICE NORTHERN INDIANA
1200 AM EDT TUE AUG 04 2015

NOTE: "FAIR" INDICATES FEW OR NO CLOUDS BELOW 12,000 FEET WITH NO
SIGNIFICANT WEATHER AND/OR OBSTRUCTIONS TO VISIBILITY.

* THESE STATIONS ARE NOT UNDER NWS QUALITY CONTROL. THEY ALSO MAY NOT
  REPORT WEATHER SUCH AS PRECIPITATION OR FOG.

INZ001>027-040500-
NORTHERN INDIANA

CITY           SKY/WX    TMP DP  RH WIND       PRES   REMARKS
SOUTH BEND     CLEAR     65  54  67 SW5       29.92R
GOSHEN         CLEAR     61  57  87 CALM      29.91S
ANGOLA*        CLEAR     59  55  88 CALM      29.91S
FORT WAYNE     CLEAR     63  56  78 CALM      29.92S

$$
INZ028>050-040500-
CENTRAL INDIANA

CITY           SKY/WX    TMP DP  RH WIND       PRES   REMARKS
LAFAYETTE      CLEAR     62  58  86 NW3       29.92S
KOKOMO*        CLEAR     64  57  77 CALM      29.93S
MUNCIE*        CLEAR     65  61  87 NW3       29.93R
INDIANAPOLIS   CLEAR     72  61  68 N8        29.92R

$$
MIZ043>046-050>051-056>058-064>065-071>073-077>080-040500-
SOUTHWEST LOWER MICHIGAN

CITY           SKY/WX    TMP DP  RH WIND       PRES   REMARKS
BATTLE CREEK     N/A    N/A N/A N/A MISG      29.90S
BENTON HARBOR  CLEAR     60  57  89 CALM      29.89S
COLDWATER*     CLEAR     60  53  77 CALM      29.91S
HILLSDALE*     CLEAR     62  52  71 CALM      29.91S
HOLLAND        MOCLDY    65  56  72 W3        29.88S
GRAND RAPIDS   MOCLDY    66  53  63 SW7       29.88R
KALAMAZOO      CLEAR     62  54  74 SW5       29.90S
STURGIS*       CLEAR     61  55  82 CALM      29.90S
THREE RIVERS*  FAIR      60  56  88 SW5       29.90S

$$
OHZ001>008-015>018-024>025-040500-
NORTHWEST OHIO

CITY           SKY/WX    TMP DP  RH WIND       PRES   REMARKS
DEFIANCE       CLEAR     62  55  77 CALM      29.90S
FINDLAY        CLEAR     64  53  67 CALM      29.89R
TOLEDO EXPRESS CLEAR     64  53  67 W8        29.89R
TOLEDO METCALF CLEAR     64  53  67 W6        29.89R
LIMA           CLEAR     64  53  67 N5        29.91S

$$
AND FOR LAKE MICHIGAN COASTAL AND OPEN LAKE BUOY OBSERVATIONS

STATION/POSITION TEMP    WIND        PRES    VSBY  WAVE
                 AIR SEA DIR/SP/G                  HT/PER
                 (F)     (DEG/KT/KT) (MB)    (MI)  (FT/S)
CALUMET HARBOR    75     240/  2/  4   N/A
MICHIGAN CITY     71     170/  6/  7   N/A
BURNS HARBOR      71     180/  3/  5 1013.2R
SAINT JOSEPH      69     170/  4/  5 1012.5R
4 MI NW BRIDGMAN  73 74  250/  8/ 10   N/A           1/ 4
MICHIGAN CITY     73 74  220/  6/  8   N/A           1/ 4

$$
&&



USA.gov is the U.S. government's official web portal to all federal, state and local government web resources and services.